Torna al catalogo

TIANYAN-16

AttivoMilitareSSO
NORAD 58502·PAYLOAD·🇨🇳 China
Questo nome del satellite non è ancora stato confermato da fonti ufficiali.

Lanciato Dec 4, 2023 da Jiuquan Satellite Launch Center

Loading…

Prossimi Passaggi (prossime 24 ore)

TLE

AggiornatoSource: Space-Track

Epoca: Sep 14, 2026, 15:12 UTC

1 58502U 23189A   26257.63391951  .00003314  00000-0  10325-3 0  9997
2 58502  97.4360 276.4675 0009142 305.4584  54.5805 15.33962618154925

Traccia TIANYAN-16 in tempo reale con AllMySat

Download on the App Store